Location: Bruch
(44.2051°N, 0.4120°E)
Time: 12:22:24
(UTC+00:00)

NOSS 3-4 (C) - Pass Details

Date: 29 November 2020
Orbit: 878 x 1334 km, 63.4° (Epoch: 22 January)

Event Time Altitude Azimuth Distance (km) Brightness Sun altitude
Exits shadow 05:48:28 20° 278° (W) 1,951 4.5 -14.5°
Maximum altitude 05:51:32 32° 324° (NW) 1,561 4.2 -14.0°
Drops below altitude 10° 05:57:11 10° 26° (NNE) 2,763 6.0 -13.1°
Sets 06:00:14 0° 36° (NE) 3,788 6.8 -12.5°
